Weather History for Aswan, Egypt

Change the Weather History Date:

Thursday, August 1, 2013

  Actual Average Record
Temperature  
Mean Temperature 94 °F -  
Max Temperature 107 °F 105 °F 116 °F (2000)
Min Temperature 82 °F 82 °F 80 °F (2008)
Cooling Degree Days 30    
Growing Degree Days 44 (Base 50)    
Moisture  
Dew Point 38 °F    
Average Humidity 13    
Maximum Humidity 19    
Minimum Humidity 5    
Precipitation  
Precipitation 0.00 in 0.00 in - ()
Sea Level Pressure  
Sea Level Pressure 29.71 in    
Wind  
Wind Speed 5 mph ()    
Max Wind Speed 15 mph    
Max Gust Speed -    
Visibility 6.0 miles    
Events      
Averages and records for this station are not official NWS values.
T = Trace of Precipitation, MM = Missing Value Source: Averaged Metar Reports

Daily Weather History Graph

Daily Weather History Graph

Search for Another Location

Airport:

Trip Planner

Search our weather history database for the weather conditions in past years. The results will help you decide how hot, cold, wet, or windy it might be!

Date:

Astronomy

Aug. 01, 2013 Rise Set
Actual Time 5:17 AM EET 6:31 PM EET
Civil Twilight 4:53 AM EET 6:56 PM EET
Nautical Twilight 4:24 AM EET 7:24 PM EET
Astronomical Twilight 3:55 AM EET 7:54 PM EET
Moon 12:42 AM EET (8/1) 2:19 PM EET (8/1)
Length of Visible Light 14h 02m
Length of Day
13h 13m
Waning Crescent, 25% of the Moon is Illuminated
Aug 1
Waning Crescent
Aug 6
New
Aug 14
First Quarter
Aug 21
Full
Aug 28
Last Quarter

Hourly Weather History & Observations

Time (EET) Temp. Dew Point Humidity Pressure Visibility Wind Dir Wind Speed Gust Speed Precip Events Conditions
12:00 AM 91.4 °F 35.6 °F 14% 29.68 in - NNE 3.5 mph - N/A   Clear
1:00 AM 89.6 °F 35.6 °F 15% 29.68 in - North 4.6 mph - N/A   Clear
2:00 AM 87 °F 37 °F 9% 29.65 in 6 mi North 3.5 mph - -  
2:00 AM 87.8 °F 37.4 °F 17% 29.68 in - North 3.5 mph - N/A   Clear
3:00 AM 86.0 °F 37.4 °F 18% 29.68 in - NNW 3.5 mph - N/A   Clear
4:00 AM 84.2 °F 37.4 °F 19% 29.68 in - NW 4.6 mph - N/A   Clear
5:00 AM 84.2 °F 37.4 °F 19% 29.71 in - North 4.6 mph - N/A   Clear
6:00 AM 84.2 °F 37.4 °F 19% 29.71 in - North 2.3 mph - N/A   Clear
7:00 AM 87.8 °F 39.2 °F 18% 29.74 in - NW 3.5 mph - N/A   Clear
8:00 AM 92 °F 40 °F 9% 29.71 in 6 mi North 2.3 mph - -  
8:00 AM 93.2 °F 39.2 °F 15% 29.74 in - North 2.3 mph - N/A   Clear
9:00 AM 96.8 °F 39.2 °F 14% 29.77 in - WSW 2.3 mph - N/A   Clear
10:00 AM 100.4 °F 39.2 °F 12% 29.77 in - SSW 3.5 mph - N/A   Clear
11:00 AM 104.0 °F 39.2 °F 11% 29.77 in - SSE 5.8 mph - N/A   Clear
12:00 PM 105.8 °F 37.4 °F 10% 29.74 in - South 8.1 mph - N/A   Clear
1:00 PM 107.6 °F 39.2 °F 10% 29.71 in - SSE 11.5 mph - N/A   Clear
2:00 PM 107 °F 39 °F 5% 29.65 in 6 mi SSE 15.0 mph - -  
2:00 PM 105.8 °F 39.2 °F 10% 29.71 in - SSE 15.0 mph - N/A   Clear
3:00 PM 107.6 °F 39.2 °F 10% 29.68 in - SE 13.8 mph - N/A   Clear
4:00 PM 105.8 °F 39.2 °F 10% 29.68 in - SSE 10.4 mph - N/A   Clear
5:00 PM 105.8 °F 37.4 °F 10% 29.68 in - SE 11.5 mph - N/A   Clear
6:00 PM 104.0 °F 42.8 °F 12% 29.68 in - SSE 9.2 mph - N/A   Clear
7:00 PM 100.4 °F 42.8 °F 14% 29.71 in - SSE 9.2 mph - N/A   Clear
8:00 PM 100.4 °F 44.6 °F 15% 29.71 in - SW 3.5 mph - N/A   Clear
9:00 PM 100.4 °F 35.6 °F 11% 29.74 in - West 3.5 mph - N/A   Clear
10:00 PM 96.8 °F 33.8 °F 11% 29.74 in - WNW 4.6 mph - N/A   Clear
11:00 PM 95.0 °F 37.4 °F 13% 29.74 in - North 6.9 mph - N/A   Clear